TimeMST,TemperatureF,Dew PointF,Humidity,Sea Level PressureIn,VisibilityMPH,Wind Direction,Wind SpeedMPH,Gust SpeedMPH,PrecipitationIn,Events,Conditions,WindDirDegrees,DateUTC
12:53 AM,45.0,30.9,58,29.76,10.0,SW,8.1,-,N/A,,Clear,220,2012-11-21 07:53:00
1:53 AM,46.0,30.9,56,29.74,10.0,South,8.1,-,N/A,,Partly Cloudy,190,2012-11-21 08:53:00
2:53 AM,46.9,30.0,52,29.72,10.0,South,18.4,28.8,N/A,,Overcast,170,2012-11-21 09:53:00
3:53 AM,46.9,30.0,52,29.69,10.0,South,13.8,17.3,N/A,,Overcast,190,2012-11-21 10:53:00
4:53 AM,46.0,30.0,54,29.68,10.0,South,10.4,-,N/A,,Mostly Cloudy,180,2012-11-21 11:53:00
5:53 AM,46.0,30.9,56,29.66,10.0,South,19.6,-,N/A,,Clear,190,2012-11-21 12:53:00
6:53 AM,46.0,30.0,54,29.65,10.0,South,15.0,23.0,N/A,,Clear,180,2012-11-21 13:53:00
7:53 AM,46.9,30.0,52,29.67,10.0,South,18.4,-,N/A,,Overcast,180,2012-11-21 14:53:00
8:53 AM,46.0,30.9,56,29.68,10.0,South,16.1,-,N/A,,Overcast,190,2012-11-21 15:53:00
9:53 AM,48.9,32.0,52,29.66,10.0,SW,5.8,-,0.00,,Partly Cloudy,220,2012-11-21 16:53:00
10:53 AM,48.0,30.0,50,29.67,10.0,SW,8.1,-,N/A,,Mostly Cloudy,230,2012-11-21 17:53:00
11:53 AM,50.0,30.9,48,29.67,10.0,South,19.6,27.6,N/A,,Overcast,190,2012-11-21 18:53:00
12:53 PM,45.0,30.9,58,29.70,10.0,SW,15.0,24.2,0.00,,Partly Cloudy,230,2012-11-21 19:53:00
1:53 PM,46.0,28.9,51,29.72,10.0,SW,16.1,25.3,N/A,,Overcast,230,2012-11-21 20:53:00
2:53 PM,43.0,32.0,65,29.73,10.0,SSW,19.6,-,N/A,,Scattered Clouds,210,2012-11-21 21:53:00
3:53 PM,43.0,25.0,49,29.74,10.0,WSW,19.6,28.8,N/A,,Scattered Clouds,240,2012-11-21 22:53:00
4:11 PM,37.4,26.6,65,29.83,10.0,NNW,21.9,28.8,N/A,,Mostly Cloudy,340,2012-11-21 23:11:00
4:53 PM,35.1,27.0,72,29.87,5.0,West,13.8,25.3,0.00,Snow,Light Snow,280,2012-11-21 23:53:00
5:22 PM,33.8,28.4,81,29.90,4.0,Calm,Calm,-,0.00,Snow,Light Snow,0,2012-11-22 00:22:00
5:25 PM,33.8,28.4,81,29.90,1.8,Calm,Calm,-,0.00,Snow,Light Snow,0,2012-11-22 00:25:00
5:28 PM,33.8,28.4,81,29.90,0.8,Calm,Calm,-,0.00,Snow,Light Snow,0,2012-11-22 00:28:00
5:37 PM,32.0,28.4,87,29.90,0.8,NE,3.5,-,0.01,Snow,Light Snow,50,2012-11-22 00:37:00
5:41 PM,32.0,28.4,87,29.90,1.2,Calm,Calm,-,0.02,Snow,Light Snow,0,2012-11-22 00:41:00
5:46 PM,30.2,30.2,100,29.92,3.0,Calm,Calm,-,0.02,Snow,Light Snow,0,2012-11-22 00:46:00
5:53 PM,30.9,30.0,96,29.93,7.0,South,4.6,-,0.02,Snow,Light Snow,180,2012-11-22 00:53:00
6:11 PM,30.2,28.4,93,29.93,9.0,South,6.9,-,0.00,,Overcast,180,2012-11-22 01:11:00
6:53 PM,32.0,27.0,82,29.96,10.0,South,8.1,-,0.00,,Overcast,180,2012-11-22 01:53:00
7:53 PM,30.0,26.1,85,29.99,10.0,SW,12.7,-,N/A,,Mostly Cloudy,220,2012-11-22 02:53:00
8:53 PM,30.0,23.0,75,30.03,10.0,SSW,17.3,-,N/A,,Overcast,200,2012-11-22 03:53:00
9:53 PM,26.1,21.0,81,30.04,10.0,SSW,13.8,-,N/A,,Clear,200,2012-11-22 04:53:00
10:53 PM,26.1,18.0,71,30.08,10.0,South,6.9,-,N/A,,Clear,180,2012-11-22 05:53:00
11:53 PM,26.1,18.0,71,30.07,10.0,South,8.1,-,N/A,,Clear,180,2012-11-22 06:53:00